Satellite-Ground Cal/Val Region Overpasses Predictions

Prediction of Satellite NPP Overpassing Cal/Val Region: PacNW

Region Location: (Latitude: 10.00, Longitude: 139.50) to (Latitude: 22.70, Longitude: 165.60).

Table of predicted overpasses for the next 14.0 days since TLE Epoch: 10/10/2020
Interval Starting Time Starting Location Ending Time Ending Location
1 10/10/2020 03:23:50 ( 10.02, 148.79) 10/10/2020 03:27:25 ( 22.65, 145.80)
2 10/10/2020 15:55:43 ( 22.69, 146.02) 10/10/2020 15:59:19 ( 10.01, 143.01)
3 10/11/2020 03:04:48 ( 10.01, 153.55) 10/11/2020 03:08:24 ( 22.69, 150.54)
4 10/11/2020 15:36:42 ( 22.65, 150.76) 10/11/2020 15:40:17 ( 10.02, 147.77)
5 10/12/2020 02:45:45 ( 10.00, 158.31) 10/12/2020 02:49:21 ( 22.68, 155.30)
6 10/12/2020 15:17:39 ( 22.66, 155.52) 10/12/2020 15:21:14 ( 10.04, 152.53)
7 10/13/2020 02:26:44 ( 10.05, 163.06) 10/13/2020 02:30:19 ( 22.67, 160.06)
8 10/13/2020 14:58:37 ( 22.67, 160.28) 10/13/2020 15:02:12 ( 10.05, 157.29)
9 10/14/2020 02:10:23 ( 19.55, 165.59) 10/14/2020 02:11:16 ( 22.66, 164.82)
10 10/14/2020 03:49:11 ( 10.05, 142.44) 10/14/2020 03:52:42 ( 22.43, 139.50)
11 10/14/2020 14:39:34 ( 22.68, 165.04) 10/14/2020 14:43:09 ( 10.06, 162.04)
12 10/14/2020 16:21:04 ( 22.67, 139.67) 10/14/2020 16:21:15 ( 22.03, 139.50)
13 10/15/2020 03:30:09 ( 10.04, 147.20) 10/15/2020 03:33:44 ( 22.66, 144.20)
14 10/15/2020 16:02:02 ( 22.68, 144.43) 10/15/2020 16:05:38 ( 10.00, 141.41)
15 10/16/2020 03:11:07 ( 10.03, 151.96) 10/16/2020 03:14:42 ( 22.65, 148.96)
16 10/16/2020 15:42:59 ( 22.69, 149.19) 10/16/2020 15:46:35 ( 10.01, 146.17)
17 10/17/2020 02:52:04 ( 10.02, 156.72) 10/17/2020 02:55:40 ( 22.70, 153.71)
18 10/17/2020 15:23:57 ( 22.70, 153.94) 10/17/2020 15:27:33 ( 10.02, 150.93)
19 10/18/2020 02:33:02 ( 10.01, 161.48) 10/18/2020 02:36:38 ( 22.69, 158.47)
20 10/18/2020 15:04:55 ( 22.65, 158.69) 10/18/2020 15:08:30 ( 10.03, 155.69)
21 10/19/2020 02:14:47 ( 12.82, 165.59) 10/19/2020 02:17:35 ( 22.68, 163.23)
22 10/19/2020 03:55:29 ( 10.01, 140.86) 10/19/2020 03:57:09 ( 15.88, 139.50)
23 10/19/2020 14:45:53 ( 22.66, 163.45) 10/19/2020 14:49:28 ( 10.04, 160.45)
24 10/20/2020 03:36:27 ( 10.00, 145.62) 10/20/2020 03:40:03 ( 22.68, 142.61)
25 10/20/2020 14:29:57 ( 11.69, 165.59) 10/20/2020 14:30:25 ( 10.05, 165.21)
26 10/20/2020 16:08:20 ( 22.66, 142.83) 10/20/2020 16:11:55 ( 10.04, 139.83)
27 10/21/2020 03:17:25 ( 10.05, 150.37) 10/21/2020 03:21:00 ( 22.68, 147.37)
28 10/21/2020 15:49:18 ( 22.67, 147.59) 10/21/2020 15:52:53 ( 10.05, 144.59)
29 10/22/2020 02:58:23 ( 10.05, 155.13) 10/22/2020 03:01:58 ( 22.67, 152.13)
30 10/22/2020 15:30:15 ( 22.67, 152.35) 10/22/2020 15:33:50 ( 10.05, 149.35)
31 10/23/2020 02:39:20 ( 10.04, 159.88) 10/23/2020 02:42:55 ( 22.66, 156.89)
